Charleston, WV

3:24 PM EST on December 05, 2019 (GMT -0500)
Yeager Airport

Weather History for KCRW - November, 2019

Change the Weather History Date:

Thursday, November 21, 2019

  Actual Average Record
Temperature  
Mean Temperature 47 °F 45 °F  
Max Temperature 61 °F 55 °F 83 °F (1931)
Min Temperature 32 °F 36 °F 16 °F (1951)
Degree Days  
Heating Degree Days 18 20  
Month to date heating degree days 505 349  
Since 1 July heating degree days 687 689  
Cooling Degree Days 0 0  
Month to date cooling degree days 0 0  
Year to date cooling degree days 1514 1094  
Moisture  
Dew Point 33 °F    
Average Humidity 65    
Maximum Humidity 96    
Minimum Humidity 33    
Precipitation  
Precipitation T in 0.13 in 1.26 in (1962)
Month to date precipitation 0.80 2.60  
Year to date precipitation 40.00 39.63  
Snow  
Snow 0.00 in 0.10 in 1.30 in (1974)
Month to date snowfall 1.5 0.6  
Since 1 September snowfall 1.5 0.7  
Snow Depth 0.00 in    
Sea Level Pressure  
Sea Level Pressure 30.14 in    
Wind  
Wind Speed 4 mph (SSW)    
Max Wind Speed 18 mph    
Max Gust Speed 24 mph    
Visibility 9 miles    
Events Rain    
T = Trace of Precipitation, MM = Missing Value Source: NWS Daily Summary

Daily Weather History Graph

Daily Weather History Graph

Search for Another Location

Airport or City:

Astronomy

Nov. 21, 2019 Rise Set
Actual Time 7:14 AM EST 5:09 PM EST
Civil Twilight 6:45 AM EST 5:38 PM EST
Nautical Twilight 6:13 AM EST 6:10 PM EST
Astronomical Twilight 5:41 AM EST 6:42 PM EST
Moon 1:14 AM EST (11/21) 2:32 PM EST (11/21)
Length of Visible Light 10h 53m
Length of Day
9h 55m
Waning Crescent, 30% of the Moon is Illuminated
Nov 21
Waning Crescent
Nov 26
New
Dec 4
First Quarter
Dec 12
Full
Dec 18
Last Quarter

Hourly Weather History & Observations

Time (EST) Temp. Windchill Dew Point Humidity Pressure Visibility Wind Dir Wind Speed Gust Speed Precip Events Conditions
12:54 AM 36.0 °F - 33.1 °F 89% 30.28 in 10.0 mi Calm Calm - N/A   Scattered Clouds
2:43 AM 34.0 °F - 30.9 °F 89% 30.25 in 6.0 mi Calm Calm - N/A   Mostly Cloudy
2:54 AM 34.0 °F - 32.0 °F 92% 30.26 in 6.0 mi Calm Calm - N/A   Mostly Cloudy
3:54 AM 34.0 °F 31.0 °F 30.9 °F 89% 30.26 in 10.0 mi East 3.5 mph - N/A   Mostly Cloudy
4:54 AM 33.1 °F - 30.9 °F 92% 30.23 in 6.0 mi Calm Calm - N/A   Mist
5:54 AM 32.0 °F - 30.9 °F 96% 30.23 in 6.0 mi Calm Calm - N/A   Scattered Clouds
6:54 AM 32.0 °F - 30.0 °F 92% 30.23 in 6.0 mi Calm Calm - N/A   Mostly Cloudy
7:54 AM 34.0 °F 31.0 °F 30.9 °F 89% 30.21 in 6.0 mi ESE 3.5 mph - N/A   Mostly Cloudy
8:54 AM 37.0 °F - 35.1 °F 93% 30.22 in 7.0 mi Calm Calm - N/A   Overcast
9:54 AM 41.0 °F - 37.0 °F 86% 30.20 in 10.0 mi Calm Calm - N/A   Mostly Cloudy
10:54 AM 46.9 °F - 37.0 °F 68% 30.17 in 10.0 mi Calm Calm - N/A   Mostly Cloudy
11:54 AM 54.0 °F - 36.0 °F 51% 30.16 in 10.0 mi South 4.6 mph - N/A   Overcast
12:54 PM 55.9 °F - 35.1 °F 45% 30.13 in 10.0 mi SSE 3.5 mph - N/A   Overcast
1:54 PM 57.9 °F - 32.0 °F 37% 30.10 in 10.0 mi South 6.9 mph - N/A   Overcast
2:54 PM 59.0 °F - 30.0 °F 33% 30.06 in 10.0 mi SE 4.6 mph - N/A   Overcast
3:54 PM 59.0 °F - 30.9 °F 35% 30.05 in 10.0 mi WSW 4.6 mph - 0.00 in   Overcast
4:54 PM 57.0 °F - 30.9 °F 37% 30.04 in 10.0 mi Calm Calm - N/A   Overcast
5:54 PM 55.9 °F - 30.0 °F 37% 30.03 in 10.0 mi South 4.6 mph - N/A   Overcast
6:54 PM 55.9 °F - 32.0 °F 40% 30.02 in 10.0 mi SSW 3.5 mph - N/A   Overcast
7:54 PM 57.0 °F - 35.1 °F 44% 30.04 in 10.0 mi WSW 9.2 mph 16.1 mph 0.00 in Rain Light Rain
8:54 PM 59.0 °F - 34.0 °F 39% 30.02 in 10.0 mi SW 5.8 mph - 0.00 in   Overcast
9:54 PM 59.0 °F - 34.0 °F 39% 30.02 in 10.0 mi WSW 8.1 mph - N/A   Overcast
10:54 PM 57.9 °F - 39.0 °F 49% 30.02 in 10.0 mi WSW 15.0 mph 24.2 mph N/A   Overcast
11:54 PM 55.9 °F - 39.9 °F 55% 29.99 in 10.0 mi SSW 5.8 mph - N/A   Overcast